Time,TemperatureF,DewpointF,PressureIn,WindDirection,WindDirectionDegrees,WindSpeedMPH,WindSpeedGustMPH,Humidity,HourlyPrecipIn,Conditions,Clouds,dailyrainin,SolarRadiationWatts/m^2,SoftwareType,DateUTC
2013-12-15 00:14:00,38.7,-21.0,30.42,NNE,19,1.0,2.0,7,0.00,,,0.01,0,weatherlink.com 1.10,2013-12-15 08:14:00,
2013-12-15 00:29:00,38.6,-27.0,30.42,NNE,19,0.0,1.0,5,0.00,,,0.01,0,weatherlink.com 1.10,2013-12-15 08:29:00,
2013-12-15 00:44:00,38.2,-24.0,30.41,NNE,19,1.0,3.0,6,0.00,,,0.01,0,weatherlink.com 1.10,2013-12-15 08:44:00,
2013-12-15 00:59:00,38.3,-27.0,30.40,NNE,19,0.0,3.0,5,0.00,,,0.01,0,weatherlink.com 1.10,2013-12-15 08:59:00,
2013-12-15 01:14:00,38.4,-31.0,30.40,NNE,19,0.0,3.0,4,0.00,,,0.01,0,weatherlink.com 1.10,2013-12-15 09:14:00,
2013-12-15 01:29:00,37.9,-28.0,30.40,NNE,19,0.0,2.0,5,0.00,,,0.01,0,weatherlink.com 1.10,2013-12-15 09:29:00,
2013-12-15 01:44:00,37.9,-28.0,30.40,NNE,19,0.0,1.0,5,0.00,,,0.01,0,weatherlink.com 1.10,2013-12-15 09:44:00,
2013-12-15 02:00:00,36.9,-22.0,30.41,NNE,19,0.0,2.0,7,0.00,,,0.00,0,weatherlink.com 1.10,2013-12-15 10:00:00,
2013-12-15 02:15:00,37.1,-28.0,30.41,NNE,19,1.0,3.0,5,0.00,,,0.00,0,weatherlink.com 1.10,2013-12-15 10:15:00,
2013-12-15 02:30:00,37.9,-37.0,30.41,NNE,19,2.0,3.0,3,0.00,,,0.00,0,weatherlink.com 1.10,2013-12-15 10:30:00,
2013-12-15 02:45:00,36.9,-25.0,30.41,NNE,19,0.0,2.0,6,0.00,,,0.00,0,weatherlink.com 1.10,2013-12-15 10:45:00,
2013-12-15 03:00:00,37.4,-32.0,30.41,NNE,19,1.0,3.0,4,0.00,,,0.00,0,weatherlink.com 1.10,2013-12-15 11:00:00,
2013-12-15 03:15:00,37.9,-44.0,30.40,NNE,19,2.0,3.0,2,0.00,,,0.00,0,weatherlink.com 1.10,2013-12-15 11:15:00,
2013-12-15 03:30:00,37.7,-32.0,30.40,NNE,19,2.0,3.0,4,0.00,,,0.00,0,weatherlink.com 1.10,2013-12-15 11:30:00,
2013-12-15 03:45:00,36.9,-28.0,30.41,NNE,19,0.0,2.0,5,0.00,,,0.00,0,weatherlink.com 1.10,2013-12-15 11:45:00,
2013-12-15 04:00:00,37.1,-32.0,30.41,NNE,19,0.0,1.0,4,0.00,,,0.00,0,weatherlink.com 1.10,2013-12-15 12:00:00,
2013-12-15 04:15:00,37.2,-37.0,30.40,NNE,19,3.0,4.0,3,0.00,,,0.00,0,weatherlink.com 1.10,2013-12-15 12:15:00,
2013-12-15 04:30:00,37.4,-37.0,30.40,NNE,19,0.0,2.0,3,0.00,,,0.00,0,weatherlink.com 1.10,2013-12-15 12:30:00,
2013-12-15 04:45:00,37.5,-44.0,30.40,NNE,19,0.0,1.0,2,0.01,,,0.01,0,weatherlink.com 1.10,2013-12-15 12:45:00,
2013-12-15 05:01:00,36.4,-29.0,30.40,NNE,19,0.0,1.0,5,0.01,,,0.01,0,weatherlink.com 1.10,2013-12-15 13:01:00,
2013-12-15 05:31:00,36.0,-29.0,30.39,NNE,19,0.0,1.0,5,0.00,,,0.01,0,weatherlink.com 1.10,2013-12-15 13:31:00,
2013-12-15 05:46:00,36.5,-38.0,30.39,NNE,19,1.0,2.0,3,0.00,,,0.01,0,weatherlink.com 1.10,2013-12-15 13:46:00,
2013-12-15 06:01:00,36.8,-38.0,30.39,NNE,19,0.0,2.0,3,0.00,,,0.01,0,weatherlink.com 1.10,2013-12-15 14:01:00,
2013-12-15 06:31:00,36.5,-38.0,30.39,NNE,19,0.0,3.0,3,0.00,,,0.01,0,weatherlink.com 1.10,2013-12-15 14:31:00,
2013-12-15 06:46:00,36.8,-45.0,30.39,NNE,19,0.0,2.0,2,0.00,,,0.01,0,weatherlink.com 1.10,2013-12-15 14:46:00,
2013-12-15 07:01:00,36.4,-38.0,30.39,NNE,19,0.0,1.0,3,0.00,,,0.01,0,weatherlink.com 1.10,2013-12-15 15:01:00,
2013-12-15 07:16:00,36.2,-38.0,30.39,NNE,19,0.0,2.0,3,0.00,,,0.01,5,weatherlink.com 1.10,2013-12-15 15:16:00,
2013-12-15 08:08:00,38.5,-99.9,30.39,NNE,19,0.0,1.0,0,0.00,,,0.01,95,weatherlink.com 1.10,2013-12-15 16:08:00,
2013-12-15 08:16:00,39.2,-99.9,30.39,NNE,19,0.0,0.0,0,0.00,,,0.01,116,weatherlink.com 1.10,2013-12-15 16:16:00,
2013-12-15 08:33:00,40.8,-99.9,30.40,NNE,19,0.0,1.0,0,0.00,,,0.01,165,weatherlink.com 1.10,2013-12-15 16:33:00,
2013-12-15 08:46:00,42.6,-99.9,30.40,NNE,19,0.0,1.0,0,0.00,,,0.01,206,weatherlink.com 1.10,2013-12-15 16:46:00,
2013-12-15 09:01:00,44.5,-99.9,30.40,NNE,19,0.0,1.0,0,0.00,,,0.01,244,weatherlink.com 1.10,2013-12-15 17:01:00,
2013-12-15 09:16:00,46.0,-99.9,30.40,NNE,19,1.0,1.0,0,0.00,,,0.01,278,weatherlink.com 1.10,2013-12-15 17:16:00,
2013-12-15 09:31:00,47.5,-99.9,30.41,NNE,19,2.0,3.0,0,0.00,,,0.01,306,weatherlink.com 1.10,2013-12-15 17:31:00,
2013-12-15 09:46:00,48.6,-99.9,30.41,NNE,19,1.0,2.0,0,0.00,,,0.01,330,weatherlink.com 1.10,2013-12-15 17:46:00,
2013-12-15 10:02:00,49.2,-99.9,30.41,NNE,19,0.0,2.0,0,0.00,,,0.01,338,weatherlink.com 1.10,2013-12-15 18:02:00,
2013-12-15 10:17:00,49.3,-99.9,30.40,NNE,19,0.0,3.0,0,0.00,,,0.01,408,weatherlink.com 1.10,2013-12-15 18:17:00,
2013-12-15 10:32:00,49.6,-29.0,30.41,NNE,19,4.0,5.0,3,0.00,,,0.01,422,weatherlink.com 1.10,2013-12-15 18:32:00,
2013-12-15 10:47:00,49.6,-10.0,30.40,North,10,5.0,6.0,8,0.00,,,0.01,454,weatherlink.com 1.10,2013-12-15 18:47:00,
2013-12-15 11:02:00,49.2,-2.0,30.40,North,9,4.0,5.0,12,0.00,,,0.01,459,weatherlink.com 1.10,2013-12-15 19:02:00,
2013-12-15 11:17:00,48.8,4.0,30.40,North,355,5.0,6.0,16,0.00,,,0.01,461,weatherlink.com 1.10,2013-12-15 19:17:00,
2013-12-15 11:32:00,48.5,5.0,30.39,WNW,303,3.0,7.0,17,0.00,,,0.01,489,weatherlink.com 1.10,2013-12-15 19:32:00,
2013-12-15 11:47:00,49.0,6.0,30.39,WNW,296,5.0,8.0,17,0.00,,,0.01,494,weatherlink.com 1.10,2013-12-15 19:47:00,
2013-12-15 12:02:00,49.1,13.0,30.38,WNW,290,6.0,8.0,23,0.00,,,0.01,475,weatherlink.com 1.10,2013-12-15 20:02:00,
2013-12-15 12:17:00,49.1,15.0,30.38,WNW,286,6.0,9.0,26,0.00,,,0.01,487,weatherlink.com 1.10,2013-12-15 20:17:00,
2013-12-15 12:32:00,49.2,16.0,30.37,WNW,285,3.0,8.0,27,0.00,,,0.01,510,weatherlink.com 1.10,2013-12-15 20:32:00,
2013-12-15 12:47:00,49.5,19.0,30.37,West,281,3.0,8.0,30,0.00,,,0.01,503,weatherlink.com 1.10,2013-12-15 20:47:00,
2013-12-15 13:02:00,50.1,20.0,30.36,West,277,4.0,7.0,30,0.00,,,0.01,485,weatherlink.com 1.10,2013-12-15 21:02:00,
2013-12-15 13:17:00,50.1,21.0,30.36,West,277,5.0,6.0,32,0.00,,,0.01,171,weatherlink.com 1.10,2013-12-15 21:17:00,
2013-12-15 13:33:00,49.4,23.0,30.35,West,277,4.0,6.0,36,0.00,,,0.01,462,weatherlink.com 1.10,2013-12-15 21:33:00,
2013-12-15 13:48:00,49.8,22.0,30.34,West,276,3.0,6.0,34,0.00,,,0.01,213,weatherlink.com 1.10,2013-12-15 21:48:00,
2013-12-15 14:03:00,49.7,21.0,30.34,West,275,5.0,7.0,33,0.00,,,0.01,287,weatherlink.com 1.10,2013-12-15 22:03:00,
2013-12-15 14:18:00,49.9,22.0,30.33,West,275,2.0,4.0,33,0.00,,,0.01,338,weatherlink.com 1.10,2013-12-15 22:18:00,
2013-12-15 14:33:00,50.4,21.0,30.33,West,275,4.0,5.0,32,0.00,,,0.01,313,weatherlink.com 1.10,2013-12-15 22:33:00,
2013-12-15 14:48:00,51.0,24.0,30.33,West,275,3.0,6.0,35,0.00,,,0.01,285,weatherlink.com 1.10,2013-12-15 22:48:00,
2013-12-15 15:03:00,51.2,26.0,30.33,West,275,4.0,5.0,38,0.00,,,0.01,211,weatherlink.com 1.10,2013-12-15 23:03:00,
2013-12-15 15:34:00,50.7,28.0,30.32,West,264,3.0,5.0,42,0.00,,,0.01,142,weatherlink.com 1.10,2013-12-15 23:34:00,
2013-12-15 15:49:00,50.2,25.0,30.32,West,264,4.0,5.0,37,0.00,,,0.01,107,weatherlink.com 1.10,2013-12-15 23:49:00,
2013-12-15 16:04:00,50.0,22.0,30.31,West,264,2.0,3.0,34,0.00,,,0.01,65,weatherlink.com 1.10,2013-12-16 00:04:00,
2013-12-15 16:19:00,49.8,21.0,30.30,West,264,0.0,2.0,32,0.00,,,0.01,37,weatherlink.com 1.10,2013-12-16 00:19:00,
2013-12-15 16:34:00,49.4,20.0,30.31,West,264,0.0,2.0,32,0.00,,,0.01,25,weatherlink.com 1.10,2013-12-16 00:34:00,
2013-12-15 16:49:00,48.6,20.0,30.30,West,264,1.0,1.0,32,0.00,,,0.01,7,weatherlink.com 1.10,2013-12-16 00:49:00,
2013-12-15 17:04:00,47.1,21.0,30.31,West,264,0.0,1.0,35,0.00,,,0.01,0,weatherlink.com 1.10,2013-12-16 01:04:00,
2013-12-15 17:19:00,45.7,16.0,30.31,West,264,0.0,1.0,30,0.00,,,0.01,0,weatherlink.com 1.10,2013-12-16 01:19:00,
2013-12-15 17:34:00,44.7,12.0,30.31,West,264,0.0,1.0,27,0.00,,,0.01,0,weatherlink.com 1.10,2013-12-16 01:34:00,
2013-12-15 17:49:00,43.8,9.0,30.30,West,264,0.0,1.0,24,0.00,,,0.01,0,weatherlink.com 1.10,2013-12-16 01:49:00,
2013-12-15 18:04:00,43.7,1.0,30.30,West,264,0.0,1.0,17,0.00,,,0.01,0,weatherlink.com 1.10,2013-12-16 02:04:00,
2013-12-15 18:19:00,43.9,-6.0,30.30,West,264,0.0,1.0,12,0.00,,,0.01,0,weatherlink.com 1.10,2013-12-16 02:19:00,
2013-12-15 18:34:00,43.7,-10.0,30.30,West,264,1.0,3.0,10,0.00,,,0.01,0,weatherlink.com 1.10,2013-12-16 02:34:00,
2013-12-15 18:49:00,45.1,-22.0,30.30,West,264,1.0,4.0,5,0.00,,,0.01,0,weatherlink.com 1.10,2013-12-16 02:49:00,
2013-12-15 19:05:00,44.7,-27.0,30.30,West,264,0.0,2.0,4,0.00,,,0.01,0,weatherlink.com 1.10,2013-12-16 03:05:00,
2013-12-15 19:20:00,44.6,-27.0,30.29,West,264,0.0,1.0,4,0.00,,,0.01,0,weatherlink.com 1.10,2013-12-16 03:20:00,
2013-12-15 19:35:00,44.1,-27.0,30.30,West,264,0.0,1.0,4,0.00,,,0.01,0,weatherlink.com 1.10,2013-12-16 03:35:00,
2013-12-15 19:50:00,44.5,-51.0,30.30,West,264,0.0,1.0,1,0.00,,,0.01,0,weatherlink.com 1.10,2013-12-16 03:50:00,
2013-12-15 20:05:00,43.5,-28.0,30.29,West,264,2.0,3.0,4,0.00,,,0.01,0,weatherlink.com 1.10,2013-12-16 04:05:00,
2013-12-15 20:20:00,45.8,-99.9,30.29,West,265,0.0,5.0,0,0.00,,,0.01,0,weatherlink.com 1.10,2013-12-16 04:20:00,
2013-12-15 20:35:00,45.5,-99.9,30.29,West,265,1.0,2.0,0,0.00,,,0.01,0,weatherlink.com 1.10,2013-12-16 04:35:00,
2013-12-15 20:50:00,45.5,-99.9,30.29,West,265,0.0,2.0,0,0.00,,,0.01,0,weatherlink.com 1.10,2013-12-16 04:50:00,
2013-12-15 21:05:00,44.8,-27.0,30.29,West,265,0.0,1.0,4,0.00,,,0.01,0,weatherlink.com 1.10,2013-12-16 05:05:00,
2013-12-15 21:20:00,44.1,-27.0,30.29,West,265,0.0,2.0,4,0.00,,,0.01,0,weatherlink.com 1.10,2013-12-16 05:20:00,
2013-12-15 21:35:00,43.8,-40.0,30.30,West,265,1.0,2.0,2,0.00,,,0.01,0,weatherlink.com 1.10,2013-12-16 05:35:00,
2013-12-15 21:50:00,44.1,-99.9,30.30,West,265,0.0,2.0,0,0.00,,,0.01,0,weatherlink.com 1.10,2013-12-16 05:50:00,
2013-12-15 22:05:00,43.9,-40.0,30.30,West,265,0.0,2.0,2,0.00,,,0.01,0,weatherlink.com 1.10,2013-12-16 06:05:00,
2013-12-15 22:21:00,43.9,-51.0,30.30,West,265,0.0,1.0,1,0.00,,,0.01,0,weatherlink.com 1.10,2013-12-16 06:21:00,
2013-12-15 22:36:00,43.5,-40.0,30.30,West,265,1.0,3.0,2,0.00,,,0.01,0,weatherlink.com 1.10,2013-12-16 06:36:00,
2013-12-15 22:51:00,43.4,-52.0,30.30,West,265,1.0,3.0,1,0.00,,,0.01,0,weatherlink.com 1.10,2013-12-16 06:51:00,
2013-12-15 23:06:00,43.4,-52.0,30.30,West,265,1.0,3.0,1,0.00,,,0.01,0,weatherlink.com 1.10,2013-12-16 07:06:00,
2013-12-15 23:21:00,43.2,-33.0,30.30,West,265,4.0,4.0,3,0.00,,,0.01,0,weatherlink.com 1.10,2013-12-16 07:21:00,
2013-12-15 23:36:00,45.3,-99.9,30.28,West,271,4.0,6.0,0,0.00,,,0.01,0,weatherlink.com 1.10,2013-12-16 07:36:00,
2013-12-15 23:51:00,46.3,-12.0,30.28,West,271,2.0,4.0,8,0.00,,,0.01,0,weatherlink.com 1.10,2013-12-16 07:51:00,